| time (UTC) | temp C | wind direction | speed KPH | gust KPH | rain 1hr cm | rain 24hr cm | rain mn cm | humidity % | barometer mb |
| 20260906203502 | 28 | 138 | 17.7 | 35.4 | 0.00 | 0.00 | 0.00 | 60 | 1014.7 |
| 20260906203004 | 28 | 133 | 17.7 | 35.4 | 0.00 | 0.00 | 0.00 | 59 | 1014.7 |
| 20260906202502 | 28 | 135 | 17.7 | 48.3 | 0.00 | 0.00 | 0.00 | 59 | 1014.8 |
| 20260906202004 | 28 | 137 | 17.7 | 48.3 | 0.00 | 0.00 | 0.00 | 58 | 1014.9 |
| 20260906201502 | 28 | 138 | 16.1 | 27.4 | 0.00 | 0.00 | 0.00 | 59 | 1014.9 |
| 20260906201003 | 28 | 134 | 16.1 | 32.2 | 0.00 | 0.00 | 0.00 | 59 | 1014.9 |
| 20260906200502 | 28 | 137 | 16.1 | 32.2 | 0.00 | 0.00 | 0.00 | 58 | 1014.9 |
| 20260906200004 | 28 | 144 | 17.7 | 29.0 | 0.00 | 0.00 | 0.00 | 58 | 1015.0 |
| 20260906195502 | 27 | 142 | 19.3 | 32.2 | 0.00 | 0.00 | 0.00 | 57 | 1015.0 |
| 20260906195003 | 28 | 130 | 22.5 | 33.8 | 0.00 | 0.00 | 0.00 | 57 | 1015.0 |
| 20260906194502 | 27 | 127 | 22.5 | 33.8 | 0.00 | 0.00 | 0.00 | 60 | 1015.2 |
| 20260906194003 | 27 | 121 | 22.5 | 33.8 | 0.00 | 0.00 | 0.00 | 59 | 1015.2 |
| 20260906193502 | 27 | 121 | 25.7 | 38.6 | 0.00 | 0.00 | 0.00 | 59 | 1015.3 |
| 20260906193003 | 27 | 127 | 25.7 | 38.6 | 0.00 | 0.00 | 0.00 | 60 | 1015.4 |
| 20260906192502 | 27 | 121 | 25.7 | 37.0 | 0.00 | 0.00 | 0.00 | 59 | 1015.4 |
| 20260906192003 | 27 | 119 | 29.0 | 40.2 | 0.00 | 0.00 | 0.00 | 60 | 1015.4 |
| 20260906191502 | 27 | 121 | 33.8 | 49.9 | 0.00 | 0.00 | 0.00 | 60 | 1015.6 |
| 20260906191003 | 27 | 115 | 30.6 | 49.9 | 0.00 | 0.00 | 0.00 | 60 | 1015.7 |
| 20260906190502 | 27 | 116 | 30.6 | 48.3 | 0.00 | 0.00 | 0.00 | 59 | 1015.7 |
| 20260906190003 | 27 | 121 | 33.8 | 48.3 | 0.00 | 0.00 | 0.00 | 60 | 1015.8 |
| 20260906185502 | 26 | 123 | 30.6 | 45.1 | 0.00 | 0.00 | 0.00 | 61 | 1016.0 |
| 20260906184502 | 26 | 110 | 37.0 | 48.3 | 0.00 | 0.00 | 0.00 | 64 | 1016.1 |
| 20260906182502 | 26 | 109 | 33.8 | 53.1 | 0.00 | 0.00 | 0.00 | 58 | 1016.3 |
| 20260906181502 | 26 | 107 | 30.6 | 49.9 | 0.00 | 0.00 | 0.00 | 58 | 1016.5 |
| 20260906181004 | 27 | 107 | 30.6 | 45.1 | 0.00 | 0.00 | 0.00 | 57 | 1016.6 |
| 20260906180502 | 27 | 109 | 29.0 | 45.1 | 0.00 | 0.00 | 0.00 | 56 | 1016.6 |
| 20260906180004 | 27 | 117 | 29.0 | 35.4 | 0.00 | 0.00 | 0.00 | 57 | 1016.6 |
| 20260906175502 | 27 | 120 | 25.7 | 33.8 | 0.00 | 0.00 | 0.00 | 56 | 1016.7 |
| 20260906175004 | 28 | 119 | 22.5 | 35.4 | 0.00 | 0.00 | 0.00 | 54 | 1016.6 |
| 20260906174502 | 28 | 124 | 24.1 | 45.1 | 0.00 | 0.00 | 0.00 | 56 | 1016.7 |
| 20260906174004 | 28 | 124 | 24.1 | 45.1 | 0.00 | 0.00 | 0.00 | 54 | 1016.8 |
| 20260906173502 | 27 | 126 | 24.1 | 40.2 | 0.00 | 0.00 | 0.00 | 56 | 1016.9 |
| 20260906173004 | 28 | 124 | 24.1 | 40.2 | 0.00 | 0.00 | 0.00 | 52 | 1016.9 |
| 20260906172502 | 28 | 127 | 17.7 | 32.2 | 0.00 | 0.00 | 0.00 | 52 | 1016.8 |
| 20260906171502 | 28 | 127 | 19.3 | 32.2 | 0.00 | 0.00 | 0.00 | 53 | 1017.0 |
| 20260906171004 | 28 | 131 | 17.7 | 32.2 | 0.00 | 0.00 | 0.00 | 54 | 1017.0 |
| 20260906170502 | 27 | 135 | 16.1 | 32.2 | 0.00 | 0.00 | 0.00 | 53 | 1017.0 |
| 20260906170004 | 27 | 138 | 16.1 | 32.2 | 0.00 | 0.00 | 0.00 | 52 | 1017.0 |
| 20260906165004 | 28 | 131 | 19.3 | 37.0 | 0.00 | 0.00 | 0.00 | 54 | 1016.9 |
| 20260906164503 | 27 | 126 | 19.3 | 32.2 | 0.00 | 0.00 | 0.00 | 52 | 1016.8 |
| 20260906164004 | 28 | 119 | 19.3 | 32.2 | 0.00 | 0.00 | 0.00 | 53 | 1016.7 |
| 20260906163004 | 27 | 124 | 17.7 | 27.4 | 0.00 | 0.00 | 0.00 | 51 | 1017.0 |
| 20260906162502 | 27 | 128 | 16.1 | 27.4 | 0.00 | 0.00 | 0.00 | 52 | 1017.0 |
| 20260906162003 | 27 | 131 | 16.1 | 24.1 | 0.00 | 0.00 | 0.00 | 51 | 1017.1 |
| 20260906161502 | 27 | 124 | 17.7 | 27.4 | 0.00 | 0.00 | 0.00 | 51 | 1017.0 |
| 20260906161004 | 27 | 126 | 16.1 | 27.4 | 0.00 | 0.00 | 0.00 | 53 | 1017.0 |
| 20260906160502 | 27 | 127 | 12.9 | 22.5 | 0.00 | 0.00 | 0.00 | 52 | 1017.1 |
| 20260906160004 | 27 | 128 | 12.9 | 24.1 | 0.00 | 0.00 | 0.00 | 52 | 1017.1 |
| 20260906155502 | 27 | 134 | 12.9 | 24.1 | 0.00 | 0.00 | 0.00 | 52 | 1017.1 |
| 20260906155004 | 27 | 130 | 16.1 | 24.1 | 0.00 | 0.00 | 0.00 | 52 | 1017.1 |
| 20260906154502 | 27 | 121 | 19.3 | 32.2 | 0.00 | 0.00 | 0.00 | 52 | 1017.1 |
| 20260906154004 | 26 | 117 | 24.1 | 32.2 | 0.00 | 0.00 | 0.00 | 53 | 1017.0 |
| 20260906153004 | 26 | 112 | 17.7 | 25.7 | 0.00 | 0.00 | 0.00 | 53 | 1017.0 |
| 20260906152502 | 26 | 116 | 17.7 | 24.1 | 0.00 | 0.00 | 0.00 | 53 | 1017.0 |
| 20260906152004 | 26 | 113 | 19.3 | 25.7 | 0.00 | 0.00 | 0.00 | 54 | 1016.8 |
| 20260906151502 | 26 | 111 | 22.5 | 27.4 | 0.00 | 0.00 | 0.00 | 53 | 1016.8 |
| 20260906151004 | 26 | 108 | 22.5 | 27.4 | 0.00 | 0.00 | 0.00 | 54 | 1016.9 |
| 20260906150004 | 26 | 106 | 19.3 | 33.8 | 0.00 | 0.00 | 0.00 | 57 | 1017.1 |
| 20260906145502 | 25 | 107 | 17.7 | 24.1 | 0.00 | 0.00 | 0.00 | 57 | 1017.1 |
| 20260906145004 | 25 | 105 | 12.9 | 19.3 | 0.00 | 0.00 | 0.00 | 60 | 1017.2 |
| 20260906144004 | 24 | 86 | 8.0 | 12.9 | 0.00 | 0.00 | 0.00 | 62 | 1017.4 |
| 20260906143503 | 24 | 69 | 6.4 | 12.9 | 0.00 | 0.00 | 0.00 | 64 | 1017.3 |
| 20260906142004 | 25 | 65 | 4.8 | 8.0 | 0.00 | 0.00 | 0.00 | 63 | 1017.1 |
| 20260906141502 | 24 | 75 | 1.6 | 8.0 | 0.00 | 0.00 | 0.00 | 64 | 1017.1 |
| 20260906141004 | 23 | 78 | 1.6 | 3.2 | 0.00 | 0.00 | 0.00 | 68 | 1017.1 |
| 20260906140502 | 22 | 76 | 1.6 | 4.8 | 0.00 | 0.00 | 0.00 | 68 | 1017.0 |
| 20260906140003 | 22 | 73 | 1.6 | 4.8 | 0.00 | 0.00 | 0.00 | 73 | 1016.9 |
| 20260906135004 | 22 | 67 | 4.8 | 8.0 | 0.00 | 0.00 | 0.00 | 69 | 1016.8 |
| 20260906134502 | 22 | 79 | 4.8 | 8.0 | 0.00 | 0.00 | 0.00 | 71 | 1016.7 |
| 20260906134004 | 21 | 115 | 1.6 | 8.0 | 0.00 | 0.00 | 0.00 | 71 | 1016.6 |
| 20260906133503 | 22 | 126 | 1.6 | 4.8 | 0.00 | 0.00 | 0.00 | 71 | 1016.5 |
| 20260906132004 | 21 | 331 | 4.8 | 9.7 | 0.00 | 0.00 | 0.00 | 69 | 1016.4 |
| 20260906131502 | 22 | 16 | 4.8 | 9.7 | 0.00 | 0.00 | 0.00 | 69 | 1016.7 |
| 20260906131004 | 21 | 334 | 6.4 | 14.5 | 0.00 | 0.00 | 0.00 | 69 | 1016.7 |
| 20260906130004 | 21 | 325 | 8.0 | 14.5 | 0.00 | 0.00 | 0.00 | 68 | 1016.5 |
| 20260906124503 | 23 | 78 | 6.4 | 8.0 | 0.00 | 0.00 | 0.00 | 60 | 1016.3 |
| 20260906124004 | 22 | 89 | 4.8 | 8.0 | 0.00 | 0.00 | 0.00 | 65 | 1016.4 |
| 20260906123502 | 22 | 104 | 1.6 | 3.2 | 0.00 | 0.00 | 0.00 | 68 | 1016.3 |
| 20260906123004 | 22 | 112 | 4.8 | 8.0 | 0.00 | 0.00 | 0.00 | 66 | 1016.2 |
| 20260906122502 | 22 | 127 | 1.6 | 8.0 | 0.00 | 0.00 | 0.00 | 64 | 1016.1 |
| 20260906122004 | 22 | 270 | 4.8 | 11.3 | 0.00 | 0.00 | 0.00 | 67 | 1016.0 |
| 20260906121503 | 23 | 280 | 6.4 | 11.3 | 0.00 | 0.00 | 0.00 | 61 | 1015.6 |
| 20260906121004 | 22 | 296 | 8.0 | 12.9 | 0.00 | 0.00 | 0.00 | 62 | 1015.7 |
| 20260906120502 | 23 | 302 | 6.4 | 12.9 | 0.00 | 0.00 | 0.00 | 61 | 1015.7 |
| 20260906120004 | 23 | 281 | 4.8 | 12.9 | 0.00 | 0.00 | 0.00 | 60 | 1015.7 |
| 20260906115503 | 23 | 224 | 8.0 | 20.9 | 0.00 | 0.00 | 0.00 | 59 | 1016.0 |
| 20260906114503 | 23 | 226 | 12.9 | 25.7 | 0.00 | 0.00 | 0.00 | 59 | 1015.8 |
| 20260906114004 | 24 | 211 | 11.3 | 22.5 | 0.00 | 0.00 | 0.00 | 57 | 1015.9 |
| 20260906113503 | 23 | 223 | 11.3 | 19.3 | 0.00 | 0.00 | 0.00 | 58 | 1015.7 |
| 20260906113004 | 24 | 249 | 16.1 | 25.7 | 0.00 | 0.00 | 0.00 | 54 | 1015.7 |
| 20260906112502 | 24 | 254 | 17.7 | 25.7 | 0.00 | 0.00 | 0.00 | 54 | 1015.7 |
| 20260906112004 | 24 | 269 | 17.7 | 27.4 | 0.00 | 0.00 | 0.00 | 57 | 1016.0 |
| 20260906111502 | 24 | 270 | 19.3 | 27.4 | 0.00 | 0.00 | 0.00 | 56 | 1016.0 |
| 20260906111004 | 24 | 265 | 17.7 | 24.1 | 0.00 | 0.00 | 0.00 | 56 | 1016.1 |
| 20260906110502 | 24 | 266 | 16.1 | 22.5 | 0.00 | 0.00 | 0.00 | 54 | 1016.0 |
| 20260906110004 | 25 | 248 | 11.3 | 24.1 | 0.00 | 0.00 | 0.00 | 52 | 1015.9 |
| 20260906105004 | 24 | 228 | 8.0 | 16.1 | 0.00 | 0.00 | 0.00 | 54 | 1015.8 |
| 20260906104503 | 24 | 262 | 11.3 | 20.9 | 0.00 | 0.00 | 0.00 | 56 | 1015.9 |
| 20260906104003 | 24 | 272 | 11.3 | 20.9 | 0.00 | 0.00 | 0.00 | 59 | 1015.8 |
| 20260906103502 | 24 | 229 | 6.4 | 19.3 | 0.00 | 0.00 | 0.00 | 60 | 1015.7 |
| 20260906103004 | 23 | 280 | 12.9 | 32.2 | 0.00 | 0.00 | 0.00 | 61 | 1015.3 |
| 20260906102503 | 24 | 297 | 19.3 | 32.2 | 0.00 | 0.00 | 0.00 | 60 | 1015.2 |
| 20260906102004 | 23 | 288 | 17.7 | 29.0 | 0.00 | 0.00 | 0.00 | 66 | 1015.7 |
| 20260906101502 | 23 | 242 | 17.7 | 27.4 | 0.00 | 0.00 | 0.00 | 67 | 1015.5 |
| 20260906101004 | 23 | 168 | 19.3 | 40.2 | 0.00 | 0.00 | 0.00 | 68 | 1015.0 |
| 20260906100502 | 23 | 152 | 17.7 | 40.2 | 0.00 | 0.00 | 0.00 | 68 | 1014.3 |
| 20260906100004 | 23 | 135 | 16.1 | 29.0 | 0.00 | 0.00 | 0.00 | 75 | 1013.7 |
| 20260906095503 | 23 | 123 | 16.1 | 22.5 | 0.00 | 0.00 | 0.00 | 82 | 1013.8 |
| 20260906094502 | 23 | 114 | 8.0 | 19.3 | 0.00 | 0.00 | 0.00 | 88 | 1014.2 |
| 20260906094004 | 23 | 114 | 12.9 | 16.1 | 0.00 | 0.00 | 0.00 | 89 | 1014.2 |
| 20260906093503 | 23 | 116 | 12.9 | 16.1 | 0.00 | 0.00 | 0.00 | 89 | 1014.3 |
| 20260906093003 | 23 | 112 | 11.3 | 16.1 | 0.00 | 0.00 | 0.00 | 89 | 1014.2 |
| 20260906092503 | 23 | 111 | 8.0 | 16.1 | 0.00 | 0.00 | 0.00 | 88 | 1014.0 |
| 20260906092003 | 23 | 116 | 6.4 | 12.9 | 0.00 | 0.00 | 0.00 | 89 | 1014.0 |
| 20260906091502 | 23 | 114 | 6.4 | 12.9 | 0.00 | 0.00 | 0.00 | 89 | 1014.2 |
| 20260906091004 | 23 | 111 | 6.4 | 12.9 | 0.00 | 0.00 | 0.00 | 89 | 1014.3 |
| 20260906090502 | 22 | 123 | 1.6 | 11.3 | 0.00 | 0.00 | 0.00 | 92 | 1014.5 |
| 20260906090003 | 22 | 297 | 1.6 | 4.8 | 0.00 | 0.00 | 0.00 | 92 | 1014.6 |
| 20260906085502 | 22 | 4 | 1.6 | 4.8 | 0.00 | 0.00 | 0.00 | 92 | 1014.6 |
| 20260906085004 | 22 | 88 | 1.6 | 4.8 | 0.00 | 0.00 | 0.00 | 90 | 1014.7 |
| 20260906084503 | 23 | 117 | 0.0 | 4.8 | 0.00 | 0.00 | 0.00 | 90 | 1014.8 |
| 20260906084004 | 23 | 124 | 1.6 | 4.8 | 0.00 | 0.00 | 0.00 | 89 | 1014.9 |
| 20260906083004 | 23 | 124 | 1.6 | 3.2 | 0.00 | 0.00 | 0.00 | 89 | 1014.9 |
| 20260906082502 | 22 | 122 | 1.6 | 3.2 | 0.00 | 0.00 | 0.00 | 91 | 1014.9 |
| 20260906082004 | 22 | 123 | 0.0 | 3.2 | 0.00 | 0.00 | 0.00 | 92 | 1014.8 |
| 20260906081004 | 23 | 121 | 1.6 | 4.8 | 0.00 | 0.00 | 0.00 | 90 | 1014.8 |
| 20260906080502 | 23 | 125 | 1.6 | 9.7 | 0.00 | 0.00 | 0.00 | 88 | 1014.9 |
| 20260906080003 | 23 | 123 | 4.8 | 11.3 | 0.00 | 0.00 | 0.00 | 88 | 1015.1 |
| 20260906075502 | 23 | 125 | 6.4 | 12.9 | 0.00 | 0.00 | 0.00 | 88 | 1015.2 |
| 20260906074004 | 23 | 115 | 6.4 | 11.3 | 0.00 | 0.00 | 0.00 | 88 | 1015.5 |
| 20260906073502 | 23 | 113 | 8.0 | 12.9 | 0.00 | 0.00 | 0.00 | 88 | 1015.4 |
| 20260906073004 | 23 | 116 | 6.4 | 12.9 | 0.00 | 0.00 | 0.00 | 88 | 1015.5 |
| 20260906072503 | 23 | 109 | 1.6 | 8.0 | 0.00 | 0.00 | 0.00 | 87 | 1015.6 |
| 20260906072004 | 23 | 102 | 4.8 | 11.3 | 0.00 | 0.00 | 0.00 | 87 | 1015.6 |
| 20260906071503 | 23 | 106 | 6.4 | 11.3 | 0.00 | 0.00 | 0.00 | 87 | 1015.4 |
| 20260906071004 | 23 | 116 | 4.8 | 8.0 | 0.00 | 0.00 | 0.00 | 87 | 1015.3 |
| 20260906070503 | 23 | 105 | 6.4 | 9.7 | 0.00 | 0.00 | 0.00 | 86 | 1015.1 |
| 20260906070004 | 23 | 98 | 6.4 | 9.7 | 0.00 | 0.00 | 0.00 | 86 | 1015.1 |
| 20260906065503 | 24 | 114 | 8.0 | 14.5 | 0.00 | 0.00 | 0.00 | 86 | 1015.1 |
| 20260906065004 | 24 | 107 | 11.3 | 14.5 | 0.00 | 0.00 | 0.00 | 86 | 1014.8 |
| 20260906064502 | 24 | 104 | 11.3 | 16.1 | 0.00 | 0.00 | 0.00 | 84 | 1014.6 |
| 20260906064004 | 24 | 112 | 11.3 | 16.1 | 0.00 | 0.00 | 0.00 | 84 | 1014.9 |
| 20260906062503 | 24 | 110 | 8.0 | 16.1 | 0.00 | 0.00 | 0.00 | 84 | 1014.8 |
| 20260906062004 | 24 | 116 | 11.3 | 19.3 | 0.00 | 0.00 | 0.00 | 83 | 1015.0 |
| 20260906061502 | 24 | 121 | 12.9 | 19.3 | 0.00 | 0.00 | 0.00 | 83 | 1015.1 |
| 20260906061004 | 24 | 121 | 11.3 | 16.1 | 0.00 | 0.00 | 0.00 | 82 | 1015.1 |
| 20260906060004 | 25 | 121 | 8.0 | 12.9 | 0.00 | 0.00 | 0.00 | 81 | 1015.4 |
| 20260906055502 | 25 | 118 | 11.3 | 12.9 | 0.00 | 0.00 | 0.00 | 80 | 1015.2 |
| 20260906054004 | 25 | 106 | 11.3 | 14.5 | 0.00 | 0.00 | 0.00 | 79 | 1014.9 |
| 20260906053503 | 25 | 120 | 8.0 | 14.5 | 0.00 | 0.00 | 0.00 | 79 | 1014.9 |
| 20260906053004 | 25 | 148 | 4.8 | 12.9 | 0.00 | 0.00 | 0.00 | 78 | 1015.1 |
| 20260906052004 | 25 | 92 | 6.4 | 12.9 | 0.00 | 0.00 | 0.00 | 77 | 1014.8 |
| 20260906051503 | 25 | 99 | 8.0 | 19.3 | 0.00 | 0.00 | 0.00 | 77 | 1014.8 |
| 20260906051004 | 26 | 95 | 11.3 | 19.3 | 0.00 | 0.00 | 0.00 | 76 | 1014.4 |
| 20260906050502 | 26 | 90 | 8.0 | 19.3 | 0.00 | 0.00 | 0.00 | 76 | 1014.4 |
| 20260906045502 | 26 | 100 | 8.0 | 14.5 | 0.00 | 0.00 | 0.00 | 75 | 1014.8 |
| 20260906045004 | 26 | 100 | 11.3 | 19.3 | 0.00 | 0.00 | 0.00 | 73 | 1014.9 |
| 20260906044503 | 26 | 102 | 8.0 | 19.3 | 0.00 | 0.00 | 0.00 | 72 | 1014.9 |
| 20260906044004 | 26 | 103 | 11.3 | 20.9 | 0.00 | 0.00 | 0.00 | 73 | 1014.9 |
| 20260906043502 | 26 | 100 | 12.9 | 20.9 | 0.00 | 0.00 | 0.00 | 74 | 1014.8 |
| 20260906043004 | 26 | 99 | 12.9 | 20.9 | 0.00 | 0.00 | 0.00 | 74 | 1014.7 |
| 20260906042004 | 26 | 100 | 12.9 | 20.9 | 0.00 | 0.00 | 0.00 | 74 | 1014.8 |
| 20260906041503 | 26 | 95 | 12.9 | 20.9 | 0.00 | 0.00 | 0.00 | 75 | 1014.8 |
| 20260906041004 | 26 | 101 | 12.9 | 20.9 | 0.00 | 0.00 | 0.00 | 73 | 1014.8 |
| 20260906040503 | 25 | 97 | 11.3 | 20.9 | 0.00 | 0.00 | 0.00 | 76 | 1014.8 |
| 20260906040004 | 25 | 86 | 8.0 | 20.9 | 0.00 | 0.00 | 0.00 | 77 | 1014.8 |
| 20260906035503 | 25 | 85 | 6.4 | 14.5 | 0.00 | 0.00 | 0.00 | 77 | 1014.9 |
| 20260906035004 | 25 | 91 | 4.8 | 9.7 | 0.00 | 0.00 | 0.00 | 77 | 1014.9 |
| 20260906034503 | 25 | 102 | 4.8 | 8.0 | 0.00 | 0.00 | 0.00 | 77 | 1014.9 |
| 20260906034004 | 25 | 119 | 4.8 | 11.3 | 0.00 | 0.00 | 0.00 | 77 | 1014.8 |
| 20260906033503 | 25 | 112 | 4.8 | 11.3 | 0.00 | 0.00 | 0.00 | 76 | 1014.8 |
| 20260906033004 | 25 | 98 | 4.8 | 8.0 | 0.00 | 0.00 | 0.00 | 77 | 1014.9 |
| 20260906032502 | 25 | 106 | 1.6 | 8.0 | 0.00 | 0.00 | 0.00 | 78 | 1014.9 |
| 20260906032004 | 25 | 120 | 1.6 | 3.2 | 0.00 | 0.00 | 0.00 | 79 | 1014.9 |
| 20260906031502 | 24 | 121 | 1.6 | 3.2 | 0.00 | 0.00 | 0.00 | 80 | 1014.9 |
| 20260906031004 | 24 | 120 | 0.0 | 3.2 | 0.00 | 0.00 | 0.00 | 79 | 1014.9 |
| 20260906030503 | 25 | 120 | 0.0 | 3.2 | 0.00 | 0.00 | 0.00 | 79 | 1014.9 |
| 20260906030004 | 25 | 121 | 0.0 | 3.2 | 0.00 | 0.00 | 0.00 | 78 | 1015.1 |
| 20260906025503 | 25 | 109 | 1.6 | 4.8 | 0.00 | 0.00 | 0.00 | 76 | 1015.1 |
| 20260906025004 | 25 | 102 | 4.8 | 8.0 | 0.00 | 0.00 | 0.00 | 75 | 1015.0 |
| 20260906024004 | 26 | 111 | 6.4 | 14.5 | 0.00 | 0.00 | 0.00 | 74 | 1014.9 |
| 20260906023502 | 26 | 106 | 8.0 | 14.5 | 0.00 | 0.00 | 0.00 | 74 | 1014.8 |
| 20260906023004 | 26 | 101 | 11.3 | 14.5 | 0.00 | 0.00 | 0.00 | 74 | 1014.8 |
| 20260906022502 | 26 | 98 | 11.3 | 14.5 | 0.00 | 0.00 | 0.00 | 74 | 1014.9 |
| 20260906022003 | 26 | 101 | 11.3 | 16.1 | 0.00 | 0.00 | 0.00 | 73 | 1014.8 |
| 20260906021502 | 26 | 109 | 8.0 | 16.1 | 0.00 | 0.00 | 0.00 | 71 | 1014.9 |
| 20260906021004 | 26 | 117 | 6.4 | 14.5 | 0.00 | 0.00 | 0.00 | 69 | 1014.9 |
| 20260906020004 | 26 | 119 | 4.8 | 8.0 | 0.00 | 0.00 | 0.00 | 69 | 1014.7 |
| 20260906015502 | 27 | 115 | 4.8 | 8.0 | 0.00 | 0.00 | 0.00 | 69 | 1014.6 |
| 20260906015005 | 27 | 113 | 4.8 | 8.0 | 0.00 | 0.00 | 0.00 | 68 | 1014.4 |
| 20260906014502 | 27 | 118 | 4.8 | 8.0 | 0.00 | 0.00 | 0.00 | 68 | 1014.4 |
| 20260906014004 | 27 | 118 | 1.6 | 4.8 | 0.00 | 0.00 | 0.00 | 67 | 1014.2 |
| 20260906013503 | 27 | 115 | 4.8 | 8.0 | 0.00 | 0.00 | 0.00 | 67 | 1014.0 |
| 20260906013004 | 27 | 115 | 6.4 | 8.0 | 0.00 | 0.00 | 0.00 | 67 | 1014.0 |
| 20260906012503 | 27 | 114 | 6.4 | 8.0 | 0.00 | 0.00 | 0.00 | 67 | 1013.9 |
| 20260906012004 | 27 | 114 | 6.4 | 8.0 | 0.00 | 0.00 | 0.00 | 67 | 1013.8 |
| 20260906011503 | 27 | 116 | 6.4 | 8.0 | 0.00 | 0.00 | 0.00 | 67 | 1013.7 |
| 20260906011004 | 27 | 118 | 6.4 | 8.0 | 0.00 | 0.00 | 0.00 | 65 | 1013.4 |
| 20260906010503 | 28 | 121 | 4.8 | 8.0 | 0.00 | 0.00 | 0.00 | 63 | 1013.1 |
| 20260906010004 | 28 | 153 | 1.6 | 4.8 | 0.00 | 0.00 | 0.00 | 63 | 1012.9 |
| 20260906005502 | 28 | 195 | 4.8 | 11.3 | 0.00 | 0.00 | 0.00 | 64 | 1012.9 |
| 20260906005005 | 28 | 186 | 6.4 | 11.3 | 0.00 | 0.00 | 0.00 | 64 | 1012.9 |
| 20260906004004 | 28 | 189 | 8.0 | 19.3 | 0.00 | 0.00 | 0.00 | 63 | 1012.7 |
| 20260906003004 | 28 | 195 | 8.0 | 14.5 | 0.00 | 0.00 | 0.00 | 62 | 1012.6 |
| 20260906002503 | 28 | 204 | 8.0 | 16.1 | 0.00 | 0.00 | 0.00 | 63 | 1012.8 |
| 20260906001503 | 28 | 224 | 8.0 | 16.1 | 0.00 | 0.00 | 0.00 | 61 | 1013.0 |
| 20260906001004 | 29 | 224 | 8.0 | 12.9 | 0.00 | 0.00 | 0.00 | 62 | 1013.1 |
| 20260906000503 | 29 | 216 | 8.0 | 20.9 | 0.00 | 0.00 | 0.00 | 61 | 1013.1 |
| 20260906000004 | 29 | 210 | 8.0 | 20.9 | 0.00 | 0.00 | 0.00 | 61 | 1013.0 |
| 20260905235004 | 29 | 213 | 6.4 | 16.1 | 0.00 | 0.00 | 0.00 | 61 | 1013.2 |
| 20260905234503 | 28 | 197 | 8.0 | 19.3 | 0.00 | 0.00 | 0.00 | 63 | 1013.3 |
| 20260905234004 | 29 | 182 | 8.0 | 19.3 | 0.00 | 0.00 | 0.00 | 61 | 1013.4 |
| 20260905233502 | 29 | 171 | 8.0 | 16.1 | 0.00 | 0.00 | 0.00 | 63 | 1013.4 |
| 20260905233004 | 29 | 169 | 11.3 | 20.9 | 0.00 | 0.00 | 0.00 | 62 | 1013.4 |
| 20260905232503 | 30 | 169 | 11.3 | 20.9 | 0.00 | 0.00 | 0.00 | 61 | 1013.4 |
| 20260905232004 | 29 | 172 | 6.4 | 16.1 | 0.00 | 0.00 | 0.00 | 63 | 1013.4 |
| 20260905231503 | 29 | 177 | 6.4 | 12.9 | 0.00 | 0.00 | 0.00 | 64 | 1013.4 |
| 20260905231004 | 29 | 178 | 8.0 | 14.5 | 0.00 | 0.00 | 0.00 | 64 | 1013.4 |
| 20260905230005 | 29 | 171 | 12.9 | 27.4 | 0.00 | 0.00 | 0.00 | 64 | 1013.5 |
| 20260905225502 | 30 | 170 | 16.1 | 27.4 | 0.00 | 0.00 | 0.00 | 63 | 1013.6 |
| 20260905225004 | 30 | 172 | 12.9 | 24.1 | 0.00 | 0.00 | 0.00 | 62 | 1013.6 |
| 20260905224503 | 30 | 173 | 12.9 | 27.4 | 0.00 | 0.00 | 0.00 | 62 | 1013.8 |
| 20260905224004 | 30 | 168 | 17.7 | 32.2 | 0.00 | 0.00 | 0.00 | 62 | 1013.8 |
| 20260905223503 | 30 | 168 | 17.7 | 32.2 | 0.00 | 0.00 | 0.00 | 61 | 1013.8 |
| 20260905222503 | 30 | 160 | 16.1 | 32.2 | 0.00 | 0.00 | 0.00 | 60 | 1014.0 |
| 20260905221503 | 30 | 162 | 17.7 | 37.0 | 0.00 | 0.00 | 0.00 | 60 | 1014.2 |
| 20260905221004 | 30 | 159 | 17.7 | 37.0 | 0.00 | 0.00 | 0.00 | 59 | 1014.1 |
| 20260905220502 | 30 | 155 | 17.7 | 32.2 | 0.00 | 0.00 | 0.00 | 58 | 1014.1 |
| 20260905220005 | 30 | 155 | 19.3 | 33.8 | 0.00 | 0.00 | 0.00 | 59 | 1014.0 |
| 20260905215503 | 30 | 155 | 17.7 | 33.8 | 0.00 | 0.00 | 0.00 | 58 | 1014.0 |
| 20260905215004 | 30 | 148 | 19.3 | 35.4 | 0.00 | 0.00 | 0.00 | 58 | 1013.9 |
| 20260905214503 | 30 | 152 | 19.3 | 35.4 | 0.00 | 0.00 | 0.00 | 57 | 1014.0 |
| 20260905214005 | 30 | 152 | 19.3 | 37.0 | 0.00 | 0.00 | 0.00 | 58 | 1014.1 |
| 20260905213503 | 30 | 149 | 19.3 | 37.0 | 0.00 | 0.00 | 0.00 | 58 | 1014.3 |
| 20260905213004 | 30 | 153 | 19.3 | 35.4 | 0.00 | 0.00 | 0.00 | 58 | 1014.3 |
| 20260905212004 | 30 | 155 | 25.7 | 41.8 | 0.00 | 0.00 | 0.00 | 61 | 1014.3 |
| 20260905211503 | 30 | 162 | 25.7 | 41.8 | 0.00 | 0.00 | 0.00 | 59 | 1014.3 |
| 20260905210502 | 30 | 160 | 22.5 | 41.8 | 0.00 | 0.00 | 0.00 | 58 | 1014.6 |
| 20260905210005 | 31 | 167 | 19.3 | 48.3 | 0.00 | 0.00 | 0.00 | 58 | 1014.8 |
| 20260905204004 | 30 | 155 | 24.1 | 41.8 | 0.00 | 0.00 | 0.00 | 59 | 1014.6 |